Location: Unspecified
(4.7532°N, 0.0000°E)
Time: 01:29:55
(UTC+00:00)

Altair - Visible Passes

Search period start: 04 April 2026 00:00
Search period end: 14 April 2026 00:00
Orbit: 1502 x 1682 km, 47.2° (Epoch: 29 March)

Date Brightness Start Highest point End Pass type
(mag) Time Alt. Az. Time Alt. Az. Time Alt. Az.
10 Apr 9.6 21:52:32 10° NNW 21:53:08 12° NNW 21:53:08 12° NNW visible
11 Apr 9.3 21:27:32 10° NNW 21:29:22 16° N 21:29:22 16° N visible
12 Apr 9.0 21:02:33 10° NNW 21:05:39 20° N 21:05:39 20° N visible
13 Apr 8.8 20:37:38 10° N 20:41:58 23° NNE 20:41:58 23° NNE visible
